CW9663 Weather Reports


Display with metric or nautical units.
time (UTC)temp
F
wind
direction
speed
MPH
gust
MPH
rain 1hr
in
rain 24hr
in
rain mn
in
humidity
%
barometer
mb
20171216222339 41 238 4.0 5.0 0.00 0.00 0.00 62 1014.7
20171216221844 41 240 4.0 5.0 0.00 0.00 0.00 62 1014.6
20171216221346 42 238 3.0 6.0 0.00 0.00 0.00 61 1014.4
20171216220841 42 238 3.0 9.0 0.00 0.00 0.00 59 1014.4
20171216220338 43 244 4.0 9.0 0.00 0.00 0.00 59 1014.4
20171216215836 43 227 3.0 7.0 0.00 0.00 0.00 59 1014.3
20171216215336 44 231 4.0 7.0 0.00 0.00 0.00 58 1014.3
20171216214855 44 225 4.0 10.0 0.00 0.00 0.00 58 1014.2
20171216214334 45 234 5.0 10.0 0.00 0.00 0.00 57 1014.1
20171216213848 45 236 7.0 11.0 0.00 0.00 0.00 56 1014.2
20171216213345 46 242 8.0 12.0 0.00 0.00 0.00 56 1014.1
20171216212839 46 218 10.0 12.0 0.00 0.00 0.00 55 1014.1
20171216212343 46 233 6.0 12.0 0.00 0.00 0.00 56 1013.9
20171216211832 46 233 10.0 14.0 0.00 0.00 0.00 55 1013.7
20171216211335 46 226 7.0 14.0 0.00 0.00 0.00 54 1013.7
20171216210853 46 220 11.0 14.0 0.00 0.00 0.00 54 1013.6
20171216210352 46 233 9.0 13.0 0.00 0.00 0.00 54 1013.4
20171216205850 47 228 10.0 13.0 0.00 0.00 0.00 54 1013.5
20171216205334 47 223 10.0 13.0 0.00 0.00 0.00 54 1013.6
20171216204845 47 247 10.0 13.0 0.00 0.00 0.00 54 1013.5
20171216204347 47 228 6.0 16.0 0.00 0.00 0.00 54 1013.6
20171216203844 47 234 12.0 16.0 0.00 0.00 0.00 53 1013.6
20171216203341 47 246 12.0 15.0 0.00 0.00 0.00 53 1013.5
20171216202848 47 230 9.0 13.0 0.00 0.00 0.00 54 1013.5
20171216202350 47 245 11.0 18.0 0.00 0.00 0.00 54 1013.5
20171216201850 47 240 14.0 18.0 0.00 0.00 0.00 53 1013.5
20171216201337 47 234 11.0 15.0 0.00 0.00 0.00 55 1013.5
20171216200843 47 242 12.0 18.0 0.00 0.00 0.00 54 1013.4
20171216200352 47 246 12.0 19.0 0.00 0.00 0.00 54 1013.3
20171216195838 47 244 12.0 18.0 0.00 0.00 0.00 54 1013.3
20171216195346 47 236 13.0 18.0 0.00 0.00 0.00 53 1013.2
20171216194840 47 249 13.0 18.0 0.00 0.00 0.00 53 1013.2
20171216194348 47 232 13.0 18.0 0.00 0.00 0.00 54 1013.2
20171216193850 47 242 16.0 20.0 0.00 0.00 0.00 54 1013.1
20171216193350 47 249 14.0 20.0 0.00 0.00 0.00 55 1013.0
20171216192847 47 236 15.0 20.0 0.00 0.00 0.00 53 1013.1
20171216192352 47 257 11.0 17.0 0.00 0.00 0.00 54 1013.1
20171216191851 47 240 11.0 18.0 0.00 0.00 0.00 53 1013.1
20171216191334 47 243 12.0 20.0 0.00 0.00 0.00 55 1013.2
20171216190838 46 261 13.0 21.0 0.00 0.00 0.00 55 1013.2
20171216190341 46 244 17.0 21.0 0.00 0.00 0.00 55 1013.2
20171216185842 46 227 15.0 19.0 0.00 0.00 0.00 54 1013.2
20171216185348 46 244 16.0 19.0 0.00 0.00 0.00 55 1013.1
20171216184846 46 255 13.0 18.0 0.00 0.00 0.00 54 1013.1
20171216184353 47 246 14.0 18.0 0.00 0.00 0.00 54 1013.0
20171216183837 47 235 11.0 16.0 0.00 0.00 0.00 55 1013.1
20171216183346 46 230 11.0 20.0 0.00 0.00 0.00 55 1013.2
20171216182841 46 246 15.0 20.0 0.00 0.00 0.00 55 1013.1
20171216182349 46 238 14.0 19.0 0.00 0.00 0.00 56 1013.1
20171216181847 46 247 13.0 21.0 0.00 0.00 0.00 57 1013.2
20171216181347 45 234 17.0 21.0 0.00 0.00 0.00 56 1013.4
20171216180850 45 248 15.0 20.0 0.00 0.00 0.00 57 1013.4
20171216180350 45 256 15.0 19.0 0.00 0.00 0.00 57 1013.3
20171216175847 45 249 13.0 18.0 0.00 0.00 0.00 58 1013.4
20171216175353 45 238 11.0 19.0 0.00 0.00 0.00 57 1013.4
20171216174850 45 239 13.0 19.0 0.00 0.00 0.00 58 1013.5
20171216174337 45 233 14.0 18.0 0.00 0.00 0.00 58 1013.6
20171216173841 44 234 14.0 18.0 0.00 0.00 0.00 60 1013.7
20171216173349 44 252 15.0 22.0 0.00 0.00 0.00 60 1013.7
20171216172847 44 247 16.0 22.0 0.00 0.00 0.00 61 1013.8
20171216172337 44 246 16.0 21.0 0.00 0.00 0.00 60 1013.8
20171216171835 44 250 15.0 18.0 0.00 0.00 0.00 61 1013.8
20171216171339 43 221 15.0 19.0 0.00 0.00 0.00 61 1013.7
20171216170843 43 232 15.0 20.0 0.00 0.00 0.00 62 1013.8
20171216170336 43 242 16.0 20.0 0.00 0.00 0.00 62 1013.8
20171216165841 42 219 15.0 19.0 0.00 0.00 0.00 62 1013.8
20171216165347 42 243 14.0 23.0 0.00 0.00 0.00 63 1013.9
20171216164842 42 218 17.0 23.0 0.00 0.00 0.00 63 1013.8
20171216164348 42 250 14.0 21.0 0.00 0.00 0.00 64 1013.9
20171216163849 42 240 16.0 21.0 0.00 0.00 0.00 64 1013.8
20171216163354 42 222 15.0 20.0 0.00 0.00 0.00 64 1014.0
20171216162832 41 254 14.0 20.0 0.00 0.00 0.00 65 1014.0
20171216162335 41 223 14.0 19.0 0.00 0.00 0.00 66 1014.1
20171216161853 41 237 15.0 19.0 0.00 0.00 0.00 65 1014.0
20171216161337 41 223 15.0 18.0 0.00 0.00 0.00 66 1014.1
20171216160836 40 242 15.0 21.0 0.00 0.00 0.00 67 1014.0
20171216160347 40 229 16.0 21.0 0.00 0.00 0.00 66 1013.9
20171216155851 40 225 16.0 19.0 0.00 0.00 0.00 68 1014.0
20171216155335 39 216 13.0 19.0 0.00 0.00 0.00 68 1013.7
20171216154836 39 213 13.0 19.0 0.00 0.00 0.00 69 1013.8
20171216154342 39 215 12.0 17.0 0.00 0.00 0.00 70 1013.7
20171216153847 38 209 11.0 16.0 0.00 0.00 0.00 72 1013.7
20171216153337 38 221 13.0 16.0 0.00 0.00 0.00 72 1013.6
20171216152836 38 229 14.0 16.0 0.00 0.00 0.00 72 1013.6
20171216152342 37 213 12.0 18.0 0.00 0.00 0.00 73 1013.6
20171216151840 37 219 13.0 18.0 0.00 0.00 0.00 73 1013.6
20171216151347 37 236 13.0 18.0 0.00 0.00 0.00 73 1013.6
20171216150846 36 222 14.0 18.0 0.00 0.00 0.00 74 1013.6
20171216150338 36 217 12.0 18.0 0.00 0.00 0.00 74 1013.5
20171216145837 36 221 13.0 16.0 0.00 0.00 0.00 75 1013.5
20171216145335 36 217 13.0 16.0 0.00 0.00 0.00 75 1013.5
20171216144839 35 207 9.0 17.0 0.00 0.00 0.00 76 1013.3
20171216144344 35 210 13.0 17.0 0.00 0.00 0.00 76 1013.2
20171216143848 35 217 14.0 17.0 0.00 0.00 0.00 76 1013.2
20171216143354 35 209 11.0 18.0 0.00 0.00 0.00 76 1013.2
20171216142853 35 214 14.0 18.0 0.00 0.00 0.00 76 1013.2
20171216142339 34 229 14.0 20.0 0.00 0.00 0.00 77 1013.2
20171216141853 34 218 15.0 20.0 0.00 0.00 0.00 77 1013.1
20171216141350 34 219 14.0 17.0 0.00 0.00 0.00 77 1013.2
20171216140836 34 215 13.0 16.0 0.00 0.00 0.00 78 1013.2
20171216140337 34 204 14.0 16.0 0.00 0.00 0.00 78 1013.0
20171216135839 33 217 9.0 15.0 0.00 0.00 0.00 78 1012.9
20171216135342 33 221 10.0 15.0 0.00 0.00 0.00 78 1013.1
20171216134840 33 215 10.0 15.0 0.00 0.00 0.00 78 1013.1
20171216134342 33 236 10.0 13.0 0.00 0.00 0.00 79 1013.1
20171216133853 33 209 8.0 14.0 0.00 0.00 0.00 79 1013.1
20171216133342 33 216 10.0 14.0 0.00 0.00 0.00 79 1013.2
20171216132855 33 202 8.0 14.0 0.00 0.00 0.00 79 1013.1
20171216132339 33 207 9.0 14.0 0.00 0.00 0.00 78 1013.2
20171216131850 33 209 11.0 14.0 0.00 0.00 0.00 77 1013.0
20171216131338 33 213 11.0 15.0 0.00 0.00 0.00 77 1013.1
20171216130836 34 197 12.0 16.0 0.00 0.00 0.00 77 1013.1
20171216130344 34 209 14.0 16.0 0.00 0.00 0.00 77 1012.9
20171216125845 34 206 12.0 16.0 0.00 0.00 0.00 76 1013.0
20171216125342 34 207 10.0 16.0 0.00 0.00 0.00 75 1013.1
20171216124840 35 199 12.0 17.0 0.00 0.00 0.00 75 1013.1
20171216124346 35 205 12.0 18.0 0.00 0.00 0.00 75 1013.2
20171216123845 35 230 14.0 18.0 0.00 0.00 0.00 74 1013.1
20171216123336 35 218 10.0 15.0 0.00 0.00 0.00 73 1013.2
20171216122839 35 218 11.0 21.0 0.00 0.00 0.00 73 1013.1
20171216122343 35 217 16.0 21.0 0.00 0.00 0.00 73 1013.1
20171216121841 35 229 16.0 19.0 0.00 0.00 0.00 73 1013.0
20171216121344 35 209 15.0 19.0 0.00 0.00 0.00 73 1013.0
20171216120842 35 237 15.0 20.0 0.00 0.00 0.00 73 1013.0
20171216120343 35 225 13.0 21.0 0.00 0.00 0.00 73 1012.9
20171216115842 35 221 13.0 22.0 0.00 0.00 0.00 73 1012.9
20171216115345 35 215 16.0 22.0 0.00 0.00 0.00 73 1012.8
20171216114846 35 217 15.0 22.0 0.00 0.00 0.00 73 1012.8
20171216114353 35 227 15.0 21.0 0.00 0.00 0.00 73 1012.8
20171216113838 35 234 16.0 21.0 0.00 0.00 0.00 73 1012.8
20171216113353 35 207 14.0 24.0 0.00 0.00 0.00 73 1012.8
20171216112832 35 235 13.0 24.0 0.00 0.00 0.00 73 1012.9
20171216112341 35 219 17.0 24.0 0.00 0.00 0.00 73 1012.7
20171216111835 35 219 16.0 24.0 0.00 0.00 0.00 73 1012.7
20171216111338 35 217 19.0 22.0 0.00 0.00 0.00 73 1012.7
20171216110844 35 211 17.0 21.0 0.00 0.00 0.00 73 1012.9
20171216110343 35 212 13.0 23.0 0.00 0.00 0.00 74 1013.0
20171216105842 34 215 18.0 23.0 0.00 0.00 0.00 74 1013.2
20171216105344 34 218 11.0 20.0 0.00 0.00 0.00 74 1013.3
20171216104845 34 214 14.0 20.0 0.00 0.00 0.00 74 1013.3
20171216104352 34 205 15.0 18.0 0.00 0.00 0.00 73 1013.1
20171216103835 34 212 12.0 20.0 0.00 0.00 0.00 73 1013.3
20171216103345 34 227 15.0 20.0 0.00 0.00 0.00 73 1013.4
20171216102842 34 217 15.0 20.0 0.00 0.00 0.00 73 1013.3
20171216102344 34 223 17.0 20.0 0.00 0.00 0.00 73 1013.4
20171216101841 34 223 16.0 20.0 0.00 0.00 0.00 73 1013.5
20171216101338 34 229 16.0 19.0 0.00 0.00 0.00 73 1013.6
20171216100846 34 221 13.0 19.0 0.00 0.00 0.00 72 1013.6
20171216100337 34 217 16.0 19.0 0.00 0.00 0.00 72 1013.6
20171216095839 34 223 16.0 19.0 0.00 0.00 0.00 72 1013.6
20171216095348 34 209 15.0 18.0 0.00 0.00 0.00 73 1013.6
20171216094846 34 221 12.0 18.0 0.00 0.00 0.00 72 1013.5
20171216094353 34 225 14.0 19.0 0.00 0.00 0.00 72 1013.5
20171216093839 34 217 14.0 19.0 0.00 0.00 0.00 71 1013.6
20171216093353 34 225 12.0 18.0 0.00 0.00 0.00 71 1013.7
20171216092851 34 229 14.0 19.0 0.00 0.00 0.00 71 1013.5
20171216092339 34 219 12.0 19.0 0.00 0.00 0.00 70 1013.3
20171216091839 34 209 14.0 19.0 0.00 0.00 0.00 69 1013.5
20171216091346 35 223 14.0 19.0 0.00 0.00 0.00 69 1013.7
20171216090850 35 210 13.0 18.0 0.00 0.00 0.00 69 1013.7
20171216090339 35 221 15.0 18.0 0.00 0.00 0.00 68 1013.8
20171216085840 35 234 14.0 18.0 0.00 0.00 0.00 68 1013.9
20171216085343 35 222 13.0 17.0 0.00 0.00 0.00 68 1013.8
20171216084842 35 227 12.0 17.0 0.00 0.00 0.00 67 1013.8
20171216084344 35 224 12.0 16.0 0.00 0.00 0.00 67 1013.8
20171216083847 35 236 10.0 17.0 0.00 0.00 0.00 67 1013.9
20171216083335 35 230 13.0 19.0 0.00 0.00 0.00 66 1013.9
20171216082840 35 210 14.0 19.0 0.00 0.00 0.00 66 1014.0
20171216082344 35 235 14.0 19.0 0.00 0.00 0.00 66 1014.0
20171216081345 35 246 12.0 19.0 0.00 0.00 0.00 66 1014.2
20171216080848 35 227 14.0 18.0 0.00 0.00 0.00 67 1014.1
20171216080342 35 248 14.0 18.0 0.00 0.00 0.00 67 1014.3
20171216075841 35 244 14.0 18.0 0.00 0.00 0.00 67 1014.2
20171216075348 35 238 13.0 21.0 0.00 0.00 0.00 67 1014.2
20171216074844 35 249 15.0 21.0 0.00 0.00 0.00 67 1014.1
20171216074332 35 231 13.0 20.0 0.00 0.00 0.00 67 1014.1
20171216073839 35 248 12.0 20.0 0.00 0.00 0.00 68 1014.1
20171216073353 35 246 13.0 18.0 0.00 0.00 0.00 69 1014.2
20171216072836 34 240 11.0 17.0 0.00 0.00 0.00 70 1014.0
20171216072343 34 233 11.0 19.0 0.00 0.00 0.00 70 1013.9
20171216071845 34 236 14.0 20.0 0.00 0.00 0.00 70 1013.9
20171216071346 34 228 15.0 20.0 0.00 0.00 0.00 70 1013.9
20171216070848 34 250 10.0 19.0 0.00 0.00 0.00 71 1013.8
20171216070354 34 242 12.0 17.0 0.00 0.00 0.00 71 1013.9
20171216065854 34 240 14.0 17.0 0.00 0.00 0.00 70 1013.8
20171216065338 34 230 15.0 17.0 0.00 0.00 0.00 71 1013.7
20171216064835 34 233 14.0 17.0 0.00 0.00 0.00 71 1013.8
20171216064339 34 236 13.0 18.0 0.00 0.00 0.00 71 1013.7
20171216063837 34 233 12.0 21.0 0.00 0.00 0.00 71 1013.8
20171216063345 33 231 17.0 21.0 0.00 0.00 0.00 71 1013.7
20171216062844 33 242 12.0 18.0 0.00 0.00 0.00 72 1013.7
20171216062350 33 210 13.0 19.0 0.00 0.00 0.00 72 1013.7
20171216061845 33 217 14.0 19.0 0.00 0.00 0.00 72 1013.7
20171216061349 33 227 15.0 19.0 0.00 0.00 0.00 72 1013.6
20171216060836 33 227 14.0 20.0 0.00 0.00 0.00 72 1013.7
20171216060342 33 217 15.0 21.0 0.00 0.00 0.00 72 1013.7
20171216055849 33 232 17.0 21.0 0.00 0.00 0.00 72 1013.6
20171216055352 33 233 13.0 22.0 0.00 0.00 0.00 72 1013.6
20171216054853 33 223 15.0 22.0 0.00 0.00 0.00 72 1013.7
20171216054335 33 222 13.0 20.0 0.00 0.00 0.00 72 1013.8
20171216053838 33 221 13.0 20.0 0.00 0.00 0.00 72 1013.8
20171216053335 32 221 11.0 19.0 0.00 0.00 0.00 72 1013.8
20171216052837 32 225 14.0 22.0 0.00 0.00 0.00 72 1013.8
20171216052345 32 218 15.0 22.0 0.00 0.00 0.00 72 1013.8
20171216051839 32 236 12.0 18.0 0.00 0.00 0.00 73 1013.9
20171216051344 32 227 15.0 18.0 0.00 0.00 0.00 73 1013.9
20171216050849 32 220 12.0 17.0 0.00 0.00 0.00 73 1014.0
20171216050351 32 217 11.0 16.0 0.00 0.00 0.00 72 1014.0
20171216045835 32 231 13.0 16.0 0.00 0.00 0.00 72 1014.0
20171216045337 32 219 13.0 18.0 0.00 0.00 0.00 72 1014.0
20171216044836 32 230 11.0 18.0 0.00 0.00 0.00 72 1014.0
20171216044342 32 231 10.0 16.0 0.00 0.00 0.00 72 1014.1
20171216043848 32 221 12.0 17.0 0.00 0.00 0.00 71 1014.1
20171216043348 32 227 10.0 18.0 0.00 0.00 0.00 72 1014.2
20171216042846 32 218 13.0 18.0 0.00 0.00 0.00 71 1014.1
20171216042349 32 227 10.0 16.0 0.00 0.00 0.00 72 1014.3
20171216041851 32 221 12.0 16.0 0.00 0.00 0.00 71 1014.4
20171216041335 32 236 12.0 16.0 0.00 0.00 0.00 72 1014.4
20171216040844 32 229 13.0 16.0 0.00 0.00 0.00 71 1014.5
20171216040339 31 232 11.0 17.0 0.00 0.00 0.00 72 1014.5
20171216035838 31 248 11.0 17.0 0.00 0.00 0.00 72 1014.5
20171216035347 31 219 11.0 16.0 0.00 0.00 0.00 72 1014.4
20171216034842 31 227 10.0 18.0 0.00 0.00 0.00 71 1014.4
20171216034348 31 221 14.0 18.0 0.00 0.00 0.00 72 1014.4
20171216033835 31 235 10.0 15.0 0.00 0.00 0.00 72 1014.6
20171216033344 31 220 11.0 15.0 0.00 0.00 0.00 71 1014.7
20171216032843 31 207 12.0 15.0 0.00 0.00 0.00 72 1014.6
20171216032350 31 222 11.0 16.0 0.00 0.00 0.00 72 1014.7
20171216031847 31 209 10.0 20.0 0.00 0.00 0.00 71 1014.6
20171216031333 31 235 10.0 20.0 0.00 0.00 0.00 71 1014.6
20171216030847 31 217 11.0 17.0 0.00 0.00 0.00 71 1014.6
20171216030349 31 209 9.0 15.0 0.00 0.00 0.00 71 1014.5
20171216025853 31 232 12.0 15.0 0.00 0.00 0.00 71 1014.6
20171216025333 31 223 12.0 15.0 0.00 0.00 0.00 70 1014.5
20171216024836 31 230 11.0 18.0 0.00 0.00 0.00 70 1014.5
20171216024338 31 232 14.0 18.0 0.00 0.00 0.00 69 1014.5
20171216023839 31 231 9.0 15.0 0.00 0.00 0.00 70 1014.5
20171216023343 31 225 10.0 18.0 0.00 0.00 0.00 70 1014.5
20171216022845 31 233 13.0 18.0 0.00 0.00 0.00 70 1014.5
20171216022349 31 224 12.0 15.0 0.00 0.00 0.00 69 1014.5
20171216021852 31 227 11.0 15.0 0.00 0.00 0.00 70 1014.5
20171216021333 31 223 10.0 16.0 0.00 0.00 0.00 70 1014.5
20171216020837 31 215 13.0 16.0 0.00 0.00 0.00 69 1014.5
20171216020345 31 234 12.0 17.0 0.00 0.00 0.00 69 1014.4
20171216015847 31 249 12.0 17.0 0.00 0.00 0.00 69 1014.4
20171216015333 31 237 11.0 16.0 0.00 0.00 0.00 69 1014.3
20171216014841 31 246 11.0 16.0 0.00 0.00 0.00 69 1014.4
20171216014342 31 219 10.0 17.0 0.00 0.00 0.00 69 1014.5
20171216013840 31 238 12.0 17.0 0.00 0.00 0.00 68 1014.6
20171216013347 31 225 13.0 17.0 0.00 0.00 0.00 69 1014.6
20171216012839 31 221 10.0 15.0 0.00 0.00 0.00 69 1014.7
20171216012332 31 229 10.0 16.0 0.00 0.00 0.00 68 1014.6
20171216011853 31 219 9.0 18.0 0.00 0.00 0.00 69 1014.6
20171216011339 31 231 9.0 18.0 0.00 0.00 0.00 69 1014.5
20171216010841 31 227 15.0 17.0 0.00 0.00 0.00 68 1014.5
20171216010346 31 254 11.0 17.0 0.00 0.00 0.00 69 1014.6
20171216005846 31 229 13.0 17.0 0.00 0.00 0.00 69 1014.5
20171216005352 31 227 10.0 15.0 0.00 0.00 0.00 69 1014.4
20171216004851 31 227 11.0 15.0 0.00 0.00 0.00 69 1014.4
20171216004340 31 225 10.0 15.0 0.00 0.00 0.00 69 1014.4
20171216003840 31 226 7.0 15.0 0.00 0.00 0.00 69 1014.3
20171216003343 31 232 7.0 14.0 0.00 0.00 0.00 69 1014.4
20171216002848 30 223 10.0 13.0 0.00 0.00 0.00 69 1014.3
20171216002334 30 228 7.0 13.0 0.00 0.00 0.00 70 1014.3
20171216001854 30 227 8.0 13.0 0.00 0.00 0.00 70 1014.2
20171216001337 30 237 8.0 11.0 0.00 0.00 0.00 69 1014.2
20171216000846 30 236 7.0 10.0 0.00 0.00 0.00 70 1014.1
20171216000355 30 230 7.0 10.0 0.00 0.00 0.00 70 1014.1
20171215235835 30 234 6.0 11.0 0.00 0.00 0.00 70 1014.0
20171215235336 30 225 9.0 11.0 0.00 0.00 0.00 70 1014.1
20171215234854 30 236 7.0 11.0 0.00 0.00 0.00 70 1014.1
20171215234335 30 216 8.0 11.0 0.00 0.00 0.00 69 1014.0
20171215233837 30 233 7.0 13.0 0.00 0.00 0.00 69 1013.8
20171215233342 30 236 11.0 13.0 0.00 0.00 0.00 69 1013.7
20171215232838 30 246 8.0 12.0 0.00 0.00 0.00 70 1013.8
20171215232342 30 240 6.0 12.0 0.00 0.00 0.00 70 1013.8
20171215231836 30 234 7.0 11.0 0.00 0.00 0.00 69 1013.7
20171215231338 30 235 8.0 10.0 0.00 0.00 0.00 69 1013.7
20171215230842 30 250 7.0 10.0 0.00 0.00 0.00 69 1013.7
20171215230351 30 257 7.0 10.0 0.00 0.00 0.00 68 1013.7
20171215225851 30 239 6.0 11.0 0.00 0.00 0.00 69 1013.7
20171215225337 30 241 7.0 11.0 0.00 0.00 0.00 69 1013.5
20171215224852 30 235 6.0 9.0 0.00 0.00 0.00 69 1013.6
20171215224339 29 233 6.0 9.0 0.00 0.00 0.00 69 1013.5
20171215223841 29 236 5.0 7.0 0.00 0.00 0.00 69 1013.4
20171215223350 29 240 6.0 10.0 0.00 0.00 0.00 69 1013.4
20171215222853 29 249 5.0 10.0 0.00 0.00 0.00 69 1013.4